Regional Weather Roundup
Issued by NWS

Home | Current Version | Previous Version | Text Only | Print | Product List | Glossary On
Versions: 1 2 3 4 5 6 7 8 9 10 11 12 13 14 15 16 17 18 19 20 21 22 23 24 25 26 27 28 29 30 31 32 33 34 35 36 37 38 39 40 41 42 43 44 45 46 47 48 49 50
000
ASUS43 KLMK 250210
RWRKY
SDFRWRKY ALL
KENTUCKY REGIONAL WEATHER ROUNDUP
NATIONAL WEATHER SERVICE LOUISVILLE KY
900 PM EST MON NOV 24 2014

NOTE "FAIR" INDICATES FEW OR NO CLOUDS BELOW 12,000 FEET
WITH NO SIGNIFICANT WEATHER AND/OR OBSTRUCTIONS TO VISIBILITY.

KYZ001>023-026-027-061>063-070>075-250300-
WESTERN AND SOUTH CENTRAL KENTUCKY

CITY           SKY/WX    TMP DP  RH WIND       PRES   REMARKS
PADUCAH        CLOUDY    47  33  58 SW5       29.94R
HENDERSON      CLOUDY    43  30  61 NW5       29.95R
OWENSBORO      CLOUDY    45  35  67 SW8       29.94R
HOPKINSVILLE   CLEAR     42  32  66 S3        29.96R
BOWLING GREEN  PTCLDY    45  31  58 W5        29.97R
GLASGOW        CLEAR     45  32  60 W6        29.96R
$$

KYZ024-025-028>034-038-045-046-053-250300-
NORTH CENTRAL KENTUCKY

CITY           SKY/WX    TMP DP  RH WIND       PRES   REMARKS
LOUISVILLE/SDF PTCLDY    47  33  58 SW14      29.92R
LOUISVILLE/LOU MOCLDY    47  32  56 SW13      29.93R
FORT KNOX      PTCLDY    43  32  65 SW7       29.92S
$$

KYZ035>037-039>044-047>052-055>060-089>105-250300-
NORTHEAST KENTUCKY

CITY           SKY/WX    TMP DP  RH WIND       PRES   REMARKS
LEXINGTON      CLOUDY    43  35  73 W8        29.92R
COVINGTON      CLOUDY    43  31  62 W10       29.89R
FRANKFORT      CLOUDY    46  33  60 SW7       29.91R
$$

KYZ054-064>069-076>088-106>120-250300-
SOUTHEAST KENTUCKY

CITY           SKY/WX    TMP DP  RH WIND       PRES   REMARKS
JACKSON        CLEAR     48  36  63 VRB5      29.90R
LONDON         CLEAR     50  33  52 W7        29.93R
SOMERSET       CLEAR     46  32  57 W9        29.96R
MIDDLESBORO    CLEAR     55  36  48 W5        29.92R
MONTICELLO     CLEAR     47  34  60 W10       29.98R
$$



USA.gov is the U.S. government's official web portal to all federal, state and local government web resources and services.